Location: *
(48.8489°N, 2.3218°E)
Time: 22:38:10
(UTC+00:00)

Cosmos 2360 Rocket - Pass Details

Date: 23 August 2019
Orbit: 835 x 844 km, 71.0° (Epoch: 17 September)

Event Time Altitude Azimuth Distance (km) Brightness Sun altitude
Rises 22:05:52 0° 334° (NNW) 3,397 6.7 -25.4°
Reaches altitude 10° 22:08:29 10° 343° (NNW) 2,460 5.6 -25.6°
Maximum altitude 22:13:46 39° 51° (NE) 1,241 3.1 -26.0°
Enters shadow 22:14:46 36° 76° (ENE) 1,306 3.0 -26.0°
